Location: Newark
(35.8833°N, 14.5000°E)
Time: 02:23:49
(UTC+00:00)

N. Korean satellite - Visible Passes

Search period start: 23 March 2019 00:00
Search period end: 02 April 2019 00:00
Orbit: 456 x 510 km, 97.2° (Epoch: 22 March)

Date Brightness Start Highest point End Pass type
(mag) Time Alt. Az. Time Alt. Az. Time Alt. Az.
23 Mar 9.8 04:18:53 10° NE 04:21:11 16° E 04:23:30 10° SE visible
27 Mar 10.0 04:13:19 10° ENE 04:15:17 14° E 04:17:14 10° SE visible
31 Mar 10.2 04:07:53 10° ENE 04:09:19 12° E 04:10:45 10° ESE visible
